DW8266 Weather Reports


Display with metric or nautical units.
time (UTC)temp
F
wind
direction
speed
MPH
gust
MPH
rain 1hr
in
rain 24hr
in
rain mn
in
humidity
%
barometer
mb
20180922205105 0 0.0 0.0 0.00 1.43 0.98 1010.1
20180922204430 0 0.0 0.0 0.00 1.43 0.98 1011.2
20180922204101 0 0.0 0.0 0.00 1.43 0.98 1010.2
20180922203012 0 0.0 0.0 0.00 1.43 0.98 1010.4
20180922202844 0 0.0 0.0 0.00 1.43 0.98 1011.4
20180922202007 0 0.0 0.0 0.14 1.43 0.98 1010.5
20180922201349 0 0.0 0.0 0.55 1.43 0.98 1011.5
20180922201010 0 0.0 0.0 0.78 1.43 0.98 1010.6
20180922195925 0 0.0 0.0 0.91 1.43 0.98 1010.8
20180922195809 0 0.0 0.0 0.91 1.43 0.98 1011.7
20180922194825 0 0.0 0.0 0.92 1.43 0.98 1011.4
20180922194338 0 0.0 0.0 0.93 1.43 0.98 1012.5
20180922193817 73 140 5.0 7.0 0.98 1.43 0.98 100 1011.5
20180922192802 73 140 7.0 15.0 0.98 1.43 0.98 100 1011.2
20180922192749 73 140 4.0 7.0 0.98 1.43 0.98 100 1012.2
20180922191805 77 134 4.0 14.0 0.66 1.11 0.66 100 1010.5
20180922191234 77 98 3.0 8.0 0.35 0.80 0.35 3 1011.9
20180922190756 78 155 2.0 11.0 0.08 0.53 0.09 18 1010.7
20180922185751 80 297 2.0 4.0 0.07 0.52 0.07 5 1011.3
20180922185740 80 297 1.0 4.0 0.07 0.52 0.07 5 1010.4
20180922184731 82 293 2.0 6.0 0.06 0.51 0.06 19 1010.5
20180922184209 82 293 3.0 6.0 0.05 0.50 0.05 33 1011.3
20180922183719 83 296 0.0 0.0 0.00 0.45 0.00 43 1010.4
20180922182722 82 296 0.0 1.0 0.00 0.45 0.00 44 1011.1
20180922182703 83 296 0.0 1.0 0.00 0.45 0.00 44 1010.2
20180922181128 82 296 3.0 11.0 0.00 0.45 0.00 46 1011.3
20180922180717 83 288 5.0 11.0 0.00 0.45 0.00 48 1010.6
20180922175702 86 213 2.0 8.0 0.00 0.45 0.00 43 1010.7
20180922175652 85 223 4.0 9.0 0.00 0.45 0.00 43 1011.6
20180922174653 85 185 3.0 7.0 0.00 0.45 0.00 46 1010.8
20180922174135 85 217 3.0 7.0 0.00 0.45 0.00 46 1011.8
20180922173646 85 201 6.0 12.0 0.00 0.45 0.00 46 1010.9
20180922172625 85 232 4.0 11.0 0.00 0.45 0.00 51 1010.9
20180922172546 85 215 7.0 11.0 0.00 0.45 0.00 51 1011.8
20180922171628 85 205 3.0 7.0 0.00 0.45 0.00 36 1011.1
20180922171042 85 198 2.0 7.0 0.00 0.45 0.00 37 1012.1
20180922170607 86 169 2.0 6.0 0.00 0.45 0.00 35 1011.2
20180922165608 85 159 3.0 8.0 0.00 0.45 0.00 34 1011.3
20180922165529 85 160 2.0 7.0 0.00 0.45 0.00 34 1012.2
20180922164611 85 207 4.0 9.0 0.00 0.45 0.00 34 1011.4
20180922164033 85 167 3.0 9.0 0.00 0.45 0.00 34 1012.4
20180922163617 85 188 4.0 9.0 0.00 0.45 0.00 31 1011.5
20180922162614 85 198 5.0 9.0 0.00 0.45 0.00 29 1011.4
20180922162445 84 202 5.0 9.0 0.00 0.45 0.00 25 1012.3
20180922161600 84 212 4.0 7.0 0.00 0.45 0.00 15 1011.1
20180922161005 84 203 3.0 7.0 0.00 0.45 0.00 11 1012.0
20180922160540 84 225 3.0 7.0 0.00 0.45 0.00 10 1011.1
20180922155538 84 171 1.0 5.0 0.00 0.45 0.00 5 1011.2
20180922155458 83 182 1.0 5.0 0.00 0.45 0.00 4 1012.2
20180922154535 83 205 2.0 7.0 0.00 0.45 0.00 100 1011.4
20180922153946 82 162 1.0 5.0 0.00 0.45 0.00 100 1012.4
20180922153509 82 161 2.0 5.0 0.00 0.45 0.00 100 1011.5
20180922152507 82 186 2.0 6.0 0.00 0.45 0.00 100 1011.8
20180922152443 82 184 1.0 6.0 0.00 0.45 0.00 100 1012.7
20180922151502 82 164 2.0 6.0 0.00 0.45 0.00 100 1011.8
20180922150852 81 201 1.0 6.0 0.00 0.45 0.00 100 1012.7
20180922150501 82 190 3.0 8.0 0.00 0.45 0.00 100 1011.7
20180922145435 82 196 3.0 6.0 0.00 0.45 0.00 100 1011.6
20180922145402 81 196 3.0 6.0 0.00 0.45 0.00 100 1012.5
20180922144430 81 202 2.0 7.0 0.00 0.45 0.00 100 1011.5
20180922143904 81 171 2.0 4.0 0.00 0.45 0.00 100 1012.4
20180922143420 81 127 2.0 7.0 0.00 0.45 0.00 100 1011.5
20180922142421 81 181 2.0 7.0 0.00 0.45 0.00 100 1011.5
20180922142343 80 196 2.0 7.0 0.00 0.45 0.00 100 1012.4
20180922141426 81 166 2.0 5.0 0.00 0.45 0.00 100 1011.5
20180922140837 80 171 0.0 4.0 0.00 0.45 0.00 100 1012.5
20180922140356 81 153 1.0 4.0 0.00 0.45 0.00 100 1011.6
20180922135356 80 153 1.0 3.0 0.00 0.45 0.00 100 1011.4
20180922135306 80 150 0.0 3.0 0.00 0.45 0.00 100 1012.3
20180922134402 80 179 1.0 5.0 0.00 0.45 0.00 100 1011.3
20180922133808 79 157 0.0 5.0 0.00 0.45 0.00 100 1012.3
20180922133342 80 157 1.0 4.0 0.00 0.45 0.00 100 1011.3
20180922132348 80 149 0.0 3.0 0.00 0.45 0.00 100 1011.5
20180922132246 79 149 0.0 3.0 0.00 0.45 0.00 100 1012.4
20180922131348 80 149 1.0 3.0 0.00 0.45 0.00 100 1011.6
20180922130734 79 149 0.0 3.0 0.00 0.45 0.00 100 1012.5
20180922130342 79 149 0.0 3.0 0.00 0.45 0.00 100 1011.5
20180922125342 79 149 0.0 2.0 0.00 0.45 0.00 100 1011.6
20180922125214 79 149 0.0 2.0 0.00 0.45 0.00 100 1012.6
20180922124330 79 149 0.0 0.0 0.00 0.45 0.00 100 1011.5
20180922123718 79 149 0.0 0.0 0.00 0.45 0.00 100 1012.3
20180922123336 79 149 0.0 0.0 0.00 0.45 0.00 100 1011.2
20180922122309 79 149 0.0 0.0 0.00 0.45 0.00 100 1011.1
20180922122106 79 149 0.0 0.0 0.00 0.45 0.00 100 1012.0
20180922121305 79 149 0.0 0.0 0.00 0.45 0.00 100 1011.1
20180922120644 79 149 0.0 0.0 0.00 0.45 0.00 100 1011.9
20180922120300 79 149 0.0 0.0 0.00 0.45 0.00 100 1011.0
20180922115133 79 149 0.0 3.0 0.00 0.45 0.00 100 1011.9
20180922114302 79 149 0.0 2.0 0.00 0.45 0.00 100 1010.8
20180922113521 79 149 0.0 2.0 0.00 0.45 0.00 100 1011.6
20180922113235 79 149 1.0 2.0 0.00 0.45 0.00 100 1010.6
20180922112232 79 150 0.0 3.0 0.00 0.45 0.00 100 1010.6
20180922112040 79 149 0.0 3.0 0.00 0.45 0.00 100 1011.6
20180922111224 80 150 0.0 2.0 0.00 0.45 0.00 100 1010.7
20180922110546 79 150 0.0 3.0 0.00 0.45 0.00 100 1011.5
20180922110208 80 150 0.0 3.0 0.00 0.45 0.00 100 1010.5
20180922105206 80 150 0.0 2.0 0.00 0.45 0.00 100 1010.5
20180922105026 79 150 0.0 2.0 0.00 0.45 0.00 100 1011.5
20180922104204 80 150 0.0 3.0 0.00 0.45 0.00 100 1010.7
20180922103456 79 150 0.0 3.0 0.00 0.45 0.00 100 1011.7
20180922103207 80 150 0.0 3.0 0.00 0.45 0.00 100 1010.8
20180922102152 80 150 1.0 4.0 0.00 0.45 0.00 100 1010.7
20180922101954 79 150 1.0 4.0 0.00 0.45 0.00 100 1011.7
20180922101151 80 148 0.0 3.0 0.00 0.45 0.00 100 1010.6
20180922100416 79 148 0.0 4.0 0.00 0.45 0.00 100 1011.5
20180922100128 80 148 1.0 4.0 0.00 0.45 0.00 100 1010.5
20180922095140 80 149 1.0 2.0 0.00 0.45 0.00 100 1010.4
20180922094857 79 149 0.0 2.0 0.00 0.45 0.00 100 1011.3
20180922094121 80 149 1.0 3.0 0.00 0.45 0.00 100 1010.5
20180922093408 79 149 0.0 4.0 0.00 0.45 0.00 100 1011.5
20180922093117 80 149 1.0 4.0 0.00 0.45 0.00 100 1010.7
20180922092111 80 152 1.0 3.0 0.00 0.45 0.00 100 1010.7
20180922091105 80 152 1.0 4.0 0.00 0.45 0.00 100 1010.7
20180922090312 79 152 0.0 2.0 0.00 0.45 0.00 100 1011.7
20180922090044 80 152 1.0 3.0 0.00 0.45 0.00 100 1010.8
20180922085055 80 152 1.0 3.0 0.00 0.45 0.00 100 1010.7
20180922084807 79 152 0.0 2.0 0.00 0.45 0.00 100 1011.7
20180922084032 80 157 0.0 3.0 0.00 0.45 0.00 100 1010.6
20180922083316 79 157 0.0 2.0 0.00 0.45 0.00 100 1011.6
20180922083031 80 157 1.0 3.0 0.00 0.45 0.00 100 1010.6
20180922082021 80 157 1.0 3.0 0.00 0.45 0.00 100 1010.7
20180922081812 79 156 0.0 3.0 0.00 0.45 0.00 100 1011.7
20180922081011 80 157 1.0 4.0 0.00 0.45 0.00 100 1010.8
20180922080247 79 159 0.0 4.0 0.00 0.45 0.00 100 1011.7
20180922080012 80 159 1.0 4.0 0.00 0.45 0.00 100 1010.7
20180922075006 80 160 1.0 6.0 0.00 0.45 0.00 100 1010.8
20180922074714 80 173 1.0 6.0 0.00 0.45 0.00 100 1011.8
20180922074014 80 153 1.0 4.0 0.00 0.45 0.00 100 1011.0
20180922073526 80 151 1.0 5.0 0.00 0.45 0.00 100 1011.9
20180922072959 80 196 1.0 5.0 0.00 0.45 0.00 100 1011.1
20180922072005 80 136 1.0 3.0 0.00 0.45 0.00 100 1011.2
20180922071709 79 137 0.0 3.0 0.00 0.45 0.00 100 1012.2
20180922070957 80 137 0.0 3.0 0.00 0.45 0.00 100 1011.3
20180922070144 79 105 0.0 4.0 0.00 0.45 0.00 100 1012.3
20180922070008 79 105 0.0 4.0 0.00 0.45 0.00 100 1011.4
20180922064944 79 61 0.0 0.0 0.00 0.45 0.00 100 1011.5
20180922064643 79 61 0.0 0.0 0.00 0.45 0.00 100 1012.5
20180922063939 79 61 0.0 0.0 0.00 0.45 0.00 100 1011.5
20180922063129 79 61 0.0 1.0 0.00 0.45 0.00 100 1012.7
20180922062945 79 61 0.0 1.0 0.00 0.45 0.00 100 1011.7
20180922061613 79 60 0.0 0.0 0.00 0.45 0.00 100 1012.8
20180922060911 79 60 0.0 0.0 0.00 0.45 0.00 100 1012.1
20180922060053 79 60 0.0 0.0 0.00 0.45 0.00 100 1013.0
20180922055914 79 60 0.0 0.0 0.00 0.45 0.00 100 1012.1
20180922054908 79 60 0.0 0.0 0.00 0.45 0.00 100 1012.3
20180922054549 79 60 0.0 0.0 0.00 0.45 0.00 100 1013.2
20180922053858 79 60 0.0 0.0 0.00 0.45 0.00 100 1012.4
20180922053034 79 60 0.0 0.0 0.00 0.45 0.00 1 1013.2
20180922052853 79 60 0.0 0.0 0.00 0.45 0.00 2 1012.3
20180922051858 79 60 0.0 0.0 0.00 0.45 0.00 3 1012.4
20180922051527 79 60 0.0 0.0 0.00 0.45 0.00 4 1013.4
20180922050843 79 60 0.0 0.0 0.00 0.45 0.00 5 1012.4
20180922045954 78 60 0.0 0.0 0.00 0.45 0.45 6 1013.3
20180922045848 79 60 0.0 0.0 0.00 0.45 0.45 7 1012.3
20180922044836 79 60 0.0 0.0 0.00 0.45 0.45 8 1012.3
20180922044447 78 60 0.0 0.0 0.00 0.45 0.45 8 1013.2
20180922043841 79 60 0.0 0.0 0.00 0.45 0.45 9 1012.3
20180922042932 78 60 0.0 0.0 0.00 0.45 0.45 10 1013.1
20180922042813 79 60 0.0 0.0 0.00 0.45 0.45 10 1012.2
20180922041815 79 60 0.0 0.0 0.00 0.45 0.45 11 1012.2
20180922041437 79 60 0.0 0.0 0.00 0.45 0.45 10 1013.1
20180922040805 79 60 0.0 0.0 0.00 0.45 0.45 11 1012.2
20180922035943 79 60 0.0 0.0 0.00 0.45 0.45 11 1013.1
20180922035802 79 60 0.0 0.0 0.00 0.45 0.45 11 1012.2
20180922034805 79 60 0.0 0.0 0.00 0.45 0.45 12 1012.4
20180922034423 79 61 0.0 0.0 0.00 0.45 0.45 11 1013.3
20180922033800 79 60 0.0 0.0 0.00 0.45 0.45 11 1012.3
20180922032842 79 60 0.0 0.0 0.00 0.45 0.45 11 1013.2
20180922032801 79 60 0.0 0.0 0.00 0.45 0.45 11 1012.3
20180922031737 79 60 0.0 0.0 0.00 0.45 0.45 11 1012.3
20180922031315 79 60 0.0 1.0 0.00 0.45 0.45 10 1013.2
20180922030735 79 60 0.0 2.0 0.00 0.45 0.45 9 1012.2
20180922025801 79 61 0.0 2.0 0.00 0.45 0.45 7 1013.1
20180922025740 79 60 0.0 2.0 0.00 0.45 0.45 7 1012.1
20180922024751 79 60 0.0 3.0 0.00 0.45 0.45 5 1012.2
20180922024254 79 60 0.0 3.0 0.00 0.45 0.45 4 1013.2
20180922023732 79 61 1.0 4.0 0.00 0.45 0.45 2 1012.2
20180922022803 79 57 0.0 4.0 0.00 0.45 0.45 100 1013.1
20180922022728 80 57 0.0 4.0 0.00 0.45 0.45 100 1012.2
20180922021704 80 69 0.0 0.0 0.00 0.45 0.45 100 1012.2
20180922021247 80 69 0.0 0.0 0.00 0.45 0.45 100 1013.2
20180922020657 80 69 0.0 0.0 0.00 0.45 0.45 100 1012.2
20180922015730 80 73 0.0 0.0 0.00 0.45 0.45 100 1013.0
20180922015659 80 73 0.0 0.0 0.00 0.45 0.45 100 1012.1
20180922014701 80 73 0.0 0.0 0.00 0.45 0.45 100 1012.0
20180922014224 80 73 0.0 0.0 0.00 0.45 0.45 100 1012.9
20180922013642 80 73 0.0 0.0 0.00 0.45 0.45 100 1011.7
20180922012641 80 74 0.0 0.0 0.00 0.45 0.45 100 1012.6
20180922012614 80 74 0.0 0.0 0.00 0.45 0.45 100 1011.6
20180922011626 80 73 0.0 0.0 0.00 0.45 0.45 100 1011.5
20180922011139 80 73 0.0 0.0 0.00 0.45 0.45 100 1012.4
20180922010553 80 73 0.0 0.0 0.00 0.45 0.45 100 1011.4
20180922005634 80 73 0.0 0.0 0.00 0.45 0.45 100 1012.4
20180922005556 80 73 0.0 0.0 0.00 0.45 0.45 100 1011.4
20180922004553 80 73 0.0 2.0 0.00 0.45 0.45 100 1011.3
20180922004103 80 73 0.0 1.0 0.00 0.45 0.45 100 1012.2
20180922002541 79 73 0.0 3.0 0.00 0.45 0.45 100 1012.2
20180922002532 80 73 1.0 3.0 0.00 0.45 0.45 100 1011.2
20180922001535 80 69 1.0 3.0 0.00 0.45 0.45 100 1011.2
20180922001024 79 74 0.0 3.0 0.00 0.45 0.45 100 1012.2
20180922000526 80 67 0.0 3.0 0.00 0.45 0.45 100 1011.2
20180921235613 79 67 0.0 3.0 0.00 0.46 0.45 100 1012.2
20180921235528 80 67 1.0 4.0 0.00 0.45 0.45 100 1011.3
20180921234537 79 67 0.0 4.0 0.00 0.45 0.45 100 1011.2
20180921234040 79 62 0.0 4.0 0.00 0.46 0.45 100 1012.1
20180921233519 79 65 0.0 4.0 0.00 0.45 0.45 100 1011.1
20180921232519 79 67 0.0 2.0 0.00 0.45 0.45 100 1011.0
20180921232439 79 67 0.0 2.0 0.00 0.46 0.45 100 1011.9
20180921231520 79 67 1.0 3.0 0.00 0.45 0.45 100 1010.9
20180921230953 79 64 0.0 3.0 0.00 0.46 0.45 100 1011.8
20180921230507 79 64 0.0 3.0 0.00 0.45 0.45 100 1011.0
20180921225516 79 64 0.0 3.0 0.00 0.46 0.45 1 1011.8
20180921225509 79 64 0.0 3.0 0.00 0.46 0.45 1 1010.9
20180921224507 79 64 0.0 2.0 0.00 0.46 0.45 1 1010.9
20180921223952 78 64 0.0 3.0 0.00 0.46 0.45 2 1011.9
20180921223516 79 64 1.0 3.0 0.00 0.46 0.45 3 1011.0
20180921222520 78 70 0.0 3.0 0.09 0.46 0.45 4 1011.0
20180921222438 78 70 0.0 3.0 0.09 0.46 0.45 4 1012.0
20180921221524 78 73 0.0 2.0 0.19 0.46 0.45 7 1011.2
20180921220859 77 73 0.0 3.0 0.41 0.46 0.45 9 1012.1
20180921220503 78 72 0.0 3.0 0.45 0.46 0.45 10 1011.1
20180921215447 77 78 0.0 2.0 0.45 0.46 0.45 14 1011.1
20180921215405 77 78 0.0 2.0 0.45 0.51 0.45 15 1012.0
20180921214417 78 77 0.0 1.0 0.45 0.46 0.45 16 1011.2
20180921213829 77 77 0.0 3.0 0.45 0.51 0.45 18 1012.3
20180921213400 78 77 0.0 3.0 0.45 0.46 0.45 21 1011.3
20180921212401 79 144 0.0 3.0 0.34 0.40 0.34 26 1011.5
20180921212338 79 144 0.0 2.0 0.34 0.40 0.34 26 1012.5
20180921211336 80 157 4.0 13.0 0.22 0.28 0.22 38 1011.0
20180921210839 81 195 6.0 13.0 0.03 0.09 0.03 51 1011.5
20180921210341 82 245 2.0 13.0 0.00 0.06 0.00 54 1010.4